Showing default

ICEYE-X5, 44389

Orbit data source: Space-Track

ICEYE-X5, 44389 is a payload satellite owned by ICEYE (FI) in SSO that was launched on Fri, 05 Jul 2019 UTC via a SOYUZ-2-1B launch vehicle from the Vostochny Cosmodrome (VOSTO). Payload-class satellites include a variety of spacecraft equipped with specific instruments for various scientific and technological missions. These include communications satellites like Starlink; space stations such as the ISS; scientific satellites like the Hubble; Earth observation satellites from companies like Planet Labs, Umbra, and HawkEye 360; GPS; miniature CubeSats for education and research; and military/defense satellites.

Loading next visibility...
Identifier
44389, 2019-038C
Orbit
SSO
Last TLE update
4 hours ago
Origin
Manufacturer
ICEYE
Mission
Non-operational Commercial Radar Imaging
Bus & Motor
ICEYE, Unknown motor
Mass
80 kg wet, 80 kg dry
Launch date (UTC)
2019-07-05 (6 years ago)
Launch vehicle
SOYUZ-2-1B
Launch site
Vostochny Cosmodrome (VOSTO)
Object type
Payload
Rocket body
Debris
Shape & HBR
Box + 1 Pan, 3.25 m
Radar Cross Section
1.837 m², Large (>1 m²)

Expand to show TLE details & history

TLE from 4 hours ago
0 ICEYE-X5
1 44389U 19038C   25129.22022138  .00019694  00000-0  65967-3 0  9993
2 44389  97.9153 146.3213 0008642 245.3233 114.7107 15.30949594320742
Epoch: 2025-05-09T05:17Z
Definitive object data (Epoch: 2025-05-09T05:17:07.127Z)
Latitude
-0.00002°
Longitude
-160.23789°
Altitude
478.548 km
Speed
7.625 km/s
True Right ascension
09h 45m 17s
True Declination
0° 00' 00"
Sunlit
Object was in daylight at TLE epoch
Visualization TLE readout
Latitude
-57.29369°
Longitude
-147.6057°
Altitude
491.98 km
Speed
7.619 km/s
Apparent Right ascension
07h 52m 39s
Apparent Declination
-54° 16' 16"
Sunlit
Object is in full shadow
Visualization observer readout
Local Sidereal Time
17:53:40
Azimuth
224.26° SW
Elevation
-65.473°
Doppler factor
1
Orbital elements
Apogee altitude
475.87 km
Perigee altitude
464.034 km
Semi-major axis
6,848.089 km
Eccentricity
0.0008642
Inclination
97.9153°
RAAN
146.3213°
Arg. of periapsis
245.3233°
True anomaly
114.80062°
Mean anomaly
114.7107°
Eccentric anomaly
114.75566°
Mean motion
3.82991 °/min
BSTAR
0.00065967
Orbital period
94 mins
Loading maneuver chart data...
Loading SW <> Apogee altitude chart data...

ICEYE-X5 Visibility forecast

Observer location: undefined°, undefined°

Span
Click to sort rows by Start time (UTC) header in descending order
Start Az.
Max El. time (UTC)
Max El. Az.
Max El.
End time (UTC)
End Az.
6 mins2025-05-09 13:41:18.084Z26.035° NE2025-05-09 13:44:18.084Z92.62° ESE36.073°2025-05-09 13:47:18.084Z172.799° S
4 mins2025-05-10 01:49:18.084Z225.441° WSW2025-05-10 01:51:18.084Z276.286° WNW21.851°2025-05-10 01:53:18.084Z314.702° NW
|